Location: Azenweiler
(47.8027°N, 9.4096°E)
Time: 15:07:49
(UTC+00:00)

Cosmos 2026 Rocket - Pass Details

Date: 10 December 2025
Orbit: 939 x 999 km, 82.9° (Epoch: 19 January)

Event Time Altitude Azimuth Distance (km) Brightness Sun altitude
Rises 05:25:34 0° 207° (SSW) 3,588 6.9 -15.1°
Reaches altitude 10° 05:28:09 10° 213° (SSW) 2,649 6.1 -14.7°
Maximum altitude 05:33:55 45° 286° (WNW) 1,261 4.2 -13.8°
Drops below altitude 10° 05:39:46 10° 359° (N) 2,686 6.1 -12.8°
Sets 05:42:25 0° 5° (N) 3,644 6.8 -12.4°
